N42AB KJYO-KGVE

Flight info

Callsign N42AB
Flight time 0h 19m
Altitude 10000
Route CSN
Aircraft SF50/L-VGDW/C

Departure

Time 2026-05-04 22:12
Airport Leesburg Executive Airport (KJYO)

Arrival

Time 2026-05-04 22:32
Airport Gordonsville Municipal Airport (KGVE)
Time Latitude Longitude Altitude Speed Heading
2026-05-04 21:56 39.07664 -77.55534 389 ft 0 kts 67°
2026-05-04 22:01 39.07676 -77.55526 389 ft 10 kts 321°
2026-05-04 22:01 39.07749 -77.55632 389 ft 17 kts 340°
2026-05-04 22:01 39.07864 -77.55686 384 ft 18 kts 339°
2026-05-04 22:01 39.07979 -77.55742 383 ft 16 kts
2026-05-04 22:02 39.08084 -77.55778 381 ft 23 kts 341°
2026-05-04 22:02 39.08246 -77.55847 379 ft 23 kts 341°
2026-05-04 22:02 39.08383 -77.55907 378 ft 19 kts 341°
2026-05-04 22:02 39.08488 -77.55953 378 ft 11 kts 339°
2026-05-04 22:03 39.08507 -77.55962 379 ft 0 kts 339°
2026-05-04 22:11 39.08521 -77.56010 379 ft 17 kts 252°
2026-05-04 22:11 39.08469 -77.56042 379 ft 0 kts 161°
2026-05-04 22:11 39.08429 -77.56024 379 ft 28 kts 161°
2026-05-04 22:12 39.08057 -77.55862 381 ft 84 kts 162°
2026-05-04 22:12 39.07420 -77.55600 624 ft 102 kts 164°
2026-05-04 22:12 39.06719 -77.55313 1086 ft 107 kts 164°
2026-05-04 22:12 39.05994 -77.54926 1461 ft 119 kts 162°
2026-05-04 22:13 39.05180 -77.54460 1872 ft 138 kts 162°
2026-05-04 22:13 39.04227 -77.53940 2303 ft 159 kts 162°
2026-05-04 22:13 39.03150 -77.53348 2728 ft 176 kts 161°
2026-05-04 22:13 39.01967 -77.52718 3159 ft 191 kts 162°
2026-05-04 22:14 39.00640 -77.52582 3541 ft 196 kts 197°
2026-05-04 22:14 38.99503 -77.53566 3939 ft 203 kts 228°
2026-05-04 22:14 38.98518 -77.54910 4353 ft 211 kts 223°
2026-05-04 22:14 38.97332 -77.56083 4754 ft 219 kts 216°
2026-05-04 22:15 38.96072 -77.57187 5158 ft 225 kts 216°
2026-05-04 22:15 38.94780 -77.58360 5558 ft 230 kts 217°
2026-05-04 22:15 38.93482 -77.59571 5968 ft 231 kts 217°
2026-05-04 22:15 38.92171 -77.60789 6378 ft 233 kts 217°
2026-05-04 22:16 38.90853 -77.61999 6764 ft 234 kts 217°
2026-05-04 22:16 38.89529 -77.63216 7159 ft 234 kts 218°
2026-05-04 22:16 38.88202 -77.64443 7557 ft 235 kts 218°
2026-05-04 22:16 38.86872 -77.65669 7953 ft 236 kts 218°
2026-05-04 22:17 38.85540 -77.66894 8383 ft 236 kts 219°
2026-05-04 22:17 38.84207 -77.68125 8793 ft 236 kts 219°
2026-05-04 22:17 38.82874 -77.69351 9213 ft 236 kts 219°
2026-05-04 22:17 38.81543 -77.70578 9627 ft 235 kts 219°
2026-05-04 22:18 38.80216 -77.71800 9993 ft 236 kts 220°
2026-05-04 22:18 38.78858 -77.73051 10016 ft 250 kts 219°
2026-05-04 22:18 38.77411 -77.74384 10021 ft 261 kts 219°
2026-05-04 22:18 38.75910 -77.75759 10026 ft 268 kts 219°
2026-05-04 22:19 38.74382 -77.77157 10022 ft 272 kts 219°
2026-05-04 22:19 38.72833 -77.78581 10027 ft 275 kts 219°
2026-05-04 22:19 38.71276 -77.80006 10028 ft 276 kts 219°
2026-05-04 22:19 38.69713 -77.81435 10024 ft 276 kts 219°
2026-05-04 22:20 38.68146 -77.82867 10025 ft 276 kts 219°
2026-05-04 22:20 38.66586 -77.84298 10020 ft 276 kts 219°
2026-05-04 22:20 38.65021 -77.85729 10029 ft 277 kts 219°
2026-05-04 22:20 38.63379 -77.87037 10027 ft 279 kts 210°
2026-05-04 22:21 38.61615 -77.88091 10027 ft 280 kts 210°
2026-05-04 22:21 38.59861 -77.89192 10027 ft 280 kts 211°
2026-05-04 22:21 38.58114 -77.90300 10028 ft 281 kts 211°
2026-05-04 22:21 38.56352 -77.91397 10024 ft 281 kts 211°
2026-05-04 22:22 38.54590 -77.92484 10027 ft 280 kts 211°
2026-05-04 22:22 38.52833 -77.93576 10025 ft 280 kts 211°
2026-05-04 22:22 38.51188 -77.94867 9606 ft 276 kts 225°
2026-05-04 22:22 38.50153 -77.96845 9005 ft 265 kts 252°
2026-05-04 22:23 38.49831 -77.99068 8794 ft 243 kts 265°
2026-05-04 22:23 38.49621 -78.01121 8691 ft 226 kts 261°
2026-05-04 22:23 38.49236 -78.03007 8529 ft 221 kts 254°
2026-05-04 22:23 38.48754 -78.04858 8314 ft 219 kts 253°
2026-05-04 22:24 38.48298 -78.06709 8038 ft 218 kts 254°
2026-05-04 22:24 38.47853 -78.08559 7762 ft 217 kts 251°
2026-05-04 22:24 38.47132 -78.10253 7477 ft 219 kts 236°
2026-05-04 22:24 38.46094 -78.11676 7204 ft 220 kts 223°
2026-05-04 22:25 38.44799 -78.12728 6918 ft 222 kts 208°
2026-05-04 22:25 38.43320 -78.13335 6627 ft 224 kts 194°
2026-05-04 22:25 38.41759 -78.13440 6335 ft 225 kts 179°
2026-05-04 22:25 38.40217 -78.13029 6013 ft 229 kts 165°
2026-05-04 22:26 38.38795 -78.12108 5703 ft 231 kts 150°
2026-05-04 22:26 38.37487 -78.10934 5410 ft 231 kts 149°
2026-05-04 22:26 38.36148 -78.09774 5109 ft 231 kts 149°
2026-05-04 22:26 38.34813 -78.08676 4798 ft 226 kts 152°
2026-05-04 22:27 38.33476 -78.07618 4497 ft 226 kts 152°
2026-05-04 22:27 38.32162 -78.06570 4202 ft 225 kts 152°
2026-05-04 22:27 38.30808 -78.05600 3907 ft 220 kts 162°
2026-05-04 22:27 38.29436 -78.05190 3629 ft 217 kts 178°
2026-05-04 22:28 38.27944 -78.05275 3340 ft 213 kts 193°
2026-05-04 22:28 38.26558 -78.05880 3055 ft 211 kts 209°
2026-05-04 22:28 38.25355 -78.06929 2781 ft 209 kts 220°
2026-05-04 22:28 38.24218 -78.08075 2498 ft 207 kts 219°
2026-05-04 22:29 38.23082 -78.09188 2232 ft 198 kts 218°
2026-05-04 22:29 38.22056 -78.10191 2002 ft 172 kts 219°
2026-05-04 22:29 38.21198 -78.11038 1985 ft 142 kts 219°
2026-05-04 22:29 38.20517 -78.11715 1922 ft 113 kts 221°
2026-05-04 22:30 38.19908 -78.12321 1675 ft 109 kts 220°
2026-05-04 22:30 38.19315 -78.12899 1424 ft 107 kts 219°
2026-05-04 22:30 38.18738 -78.13495 1196 ft 104 kts 218°
2026-05-04 22:30 38.18191 -78.14032 1088 ft 92 kts 220°
2026-05-04 22:31 38.17725 -78.14486 933 ft 80 kts 218°
2026-05-04 22:31 38.17275 -78.14930 767 ft 84 kts 213°
2026-05-04 22:31 38.16796 -78.15390 740 ft 89 kts 218°
2026-05-04 22:31 38.16317 -78.15870 611 ft 87 kts 215°
2026-05-04 22:32 38.15840 -78.16344 471 ft 86 kts 216°
2026-05-04 22:32 38.15477 -78.16690 453 ft 35 kts 218°
2026-05-04 22:32 38.15362 -78.16798 456 ft 4 kts 27°
2026-05-04 22:32 38.15447 -78.16721 454 ft 22 kts 38°
2026-05-04 22:33 38.15574 -78.16599 448 ft 23 kts 38°
2026-05-04 22:33 38.15655 -78.16575 447 ft 9 kts 309°
2026-05-04 22:33 38.15708 -78.16660 453 ft 12 kts 287°
2026-05-04 22:33 38.15711 -78.16683 455 ft 4 kts 329°
2026-05-04 22:34 38.15711 -78.16682 455 ft 0 kts 329°